Waarnemingen

Advertentie
Mijn weer
Bergamo/Orio al Serio, Italië (16076): temperatuur & dauwpunt: 11.12.2017 07:00:00 - 17.12.2017 07:00:00 (CET)Bergamo/Orio al Serio, Italië (16076): windsnelheid: 11.12.2017 07:00:00 - 17.12.2017 07:00:00 (CET)Bergamo/Orio al Serio, Italië (16076): windrichting: 11.12.2017 07:00:00 - 17.12.2017 07:00:00 (CET)Bergamo/Orio al Serio, Italië (16076): luchtdruk: 11.12.2017 07:00:00 - 17.12.2017 07:00:00 (CET)Bergamo/Orio al Serio, Italië (16076): zicht: 11.12.2017 07:00:00 - 17.12.2017 07:00:00 (CET)
Datum & Tijd tt [°C] td [°C] ff [km/u] ff [kn] dd ppp [hPa] vv [km]
17.12.2017 07:00:00 -3,0 -3,0 5 3 N - 10
17.12.2017 06:00:00 -3,0 -3,0 4 2 - - 10
17.12.2017 05:00:00 -2,0 -3,0 4 2 - - 10
17.12.2017 04:00:00 -3,8 -4,1 5 3 NNW 1017,2 10
17.12.2017 03:00:00 -2,0 -3,0 9 5 NW - 10
17.12.2017 02:00:00 -4,0 -4,0 5 3 NNW - 0,6
17.12.2017 01:00:00 -2,4 -2,5 4 2 N 1016,5 0,4
17.12.2017 00:00:00 -2,0 -2,0 11 6 W - 0,3
16.12.2017 23:00:00 -1,0 -1,0 4 2 - - 10
16.12.2017 22:00:00 0,5 -0,7 8 4 - 1014,7 10
16.12.2017 21:00:00 0,0 -1,0 8 4 - - 9
16.12.2017 20:00:00 2,0 0,0 5 3 - - 7
16.12.2017 19:00:00 0,9 -0,5 9 5 NNW 1012,9 7
16.12.2017 18:00:00 4,0 2,0 5 3 N - 9
16.12.2017 17:00:00 4,0 2,0 4 2 - - 9
16.12.2017 16:00:00 4,9 2,0 8 4 ZW 1010,7 9
16.12.2017 15:00:00 5,0 3,0 5 3 - - 9
16.12.2017 14:00:00 4,0 2,0 4 2 - - 8
16.12.2017 13:00:00 2,5 1,2 11 6 WZW 1009,8 7
16.12.2017 12:00:00 3,0 2,0 13 7 WNW - 6
16.12.2017 11:00:00 3,0 2,0 9 5 WNW - 7
16.12.2017 10:00:00 1,5 -0,4 8 4 NW 1008,6 7
16.12.2017 09:00:00 0,0 -2,0 5 3 - - 7
16.12.2017 08:00:00 0,0 -1,0 5 3 N - 5
16.12.2017 07:00:00 1,6 1,1 5 3 NO 1005,7 5
16.12.2017 06:00:00 1,0 0,0 8 4 NO - 5
16.12.2017 05:00:00 1,0 -1,0 5 3 ONO - 5
16.12.2017 04:00:00 -0,5 -4,4 5 3 NNO 1002,2 10
16.12.2017 03:00:00 1,0 -4,0 13 7 NNO - 10
16.12.2017 02:00:00 0,0 -3,0 11 6 N - 10
16.12.2017 01:00:00 0,2 -2,4 5 3 - 1000,1 5
16.12.2017 00:00:00 -1,0 -1,0 4 2 - - 5
15.12.2017 23:00:00 -1,0 -1,0 8 4 WNW - 0,5
15.12.2017 22:00:00 1,0 0,0 4 2 - - 0,1
15.12.2017 21:00:00 0,0 0,0 8 4 O - 1,0
15.12.2017 20:00:00 2,0 1,0 5 3 W - 3,5
15.12.2017 19:00:00 2,4 1,5 8 4 WNW 998,2 6
15.12.2017 18:00:00 3,0 1,0 5 3 W - 4,0
15.12.2017 17:00:00 3,0 2,0 9 5 WNW - 4,0
15.12.2017 16:00:00 4,3 2,4 9 5 W 998,4 6
15.12.2017 15:00:00 6,0 3,0 4 2 - - 8
15.12.2017 14:00:00 6,0 3,0 4 2 - - 8
15.12.2017 13:00:00 5,6 3,1 8 4 WZW 999,5 8
15.12.2017 12:00:00 6,0 2,0 4 2 - - 8
15.12.2017 11:00:00 4,0 2,0 5 3 - - 10
15.12.2017 10:00:00 4,8 2,2 5 3 WNW 1001,1 10
15.12.2017 09:00:00 3,0 1,0 11 6 NNO - 10
15.12.2017 08:00:00 4,0 1,0 5 3 NO - 10
15.12.2017 07:00:00 3,0 1,0 9 5 WNW 999,9 10
15.12.2017 06:00:00 3,0 1,0 13 7 NW - 10
15.12.2017 05:00:00 2,0 0,0 11 6 N - 10
15.12.2017 04:00:00 0,7 -1,0 8 4 NNO 1000,2 10
15.12.2017 03:00:00 1,0 0,0 5 3 - - 7
15.12.2017 02:00:00 0,0 -1,0 4 2 - - 6
15.12.2017 01:00:00 0,6 -0,5 5 3 - 1002,0 6
15.12.2017 00:00:00 0,0 -1,0 4 2 - - 5
14.12.2017 23:00:00 3,0 2,0 8 4 - - 6
14.12.2017 22:00:00 2,4 0,8 2 1 - 1003,6 10
14.12.2017 21:00:00 2,0 0,0 9 5 NNO - 10
14.12.2017 20:00:00 3,0 1,0 8 4 NO - 10
14.12.2017 19:00:00 3,1 1,9 5 3 ONO 1005,2 10
14.12.2017 18:00:00 4,0 2,0 2 1 - - 10
14.12.2017 17:00:00 5,0 2,0 4 2 - - 10
14.12.2017 16:00:00 6,5 2,1 8 4 ZZW 1006,2 10
14.12.2017 15:00:00 8,0 2,0 9 5 ZW - 10
14.12.2017 14:00:00 8,0 3,0 8 4 W - 10
14.12.2017 13:00:00 7,2 3,8 2 1 - 1007,9 9
14.12.2017 12:00:00 4,0 3,0 5 3 O - 5
14.12.2017 11:00:00 5,0 3,0 5 3 Z - 4,0
14.12.2017 10:00:00 4,9 2,9 4 2 - 1010,0 8
14.12.2017 09:00:00 4,0 2,0 9 5 ZZW - 8
14.12.2017 08:00:00 3,0 2,0 5 3 N - 8
14.12.2017 07:00:00 3,4 2,3 4 2 - 1009,9 8
14.12.2017 06:00:00 3,0 2,0 4 2 - - 7
14.12.2017 05:00:00 4,0 1,0 5 3 WZW - 10
14.12.2017 04:00:00 4,1 1,9 5 3 WZW 1011,1 10
14.12.2017 03:00:00 4,0 1,0 8 4 - - 10
14.12.2017 02:00:00 4,0 2,0 11 6 NNO - 10
14.12.2017 01:00:00 2,7 1,3 8 4 N 1013,2 10
14.12.2017 00:00:00 3,0 1,0 5 3 N - 7
13.12.2017 23:00:00 2,0 1,0 8 4 N - 7
13.12.2017 22:00:00 1,0 0,3 5 3 NNO 1015,4 7
13.12.2017 21:00:00 2,0 1,0 9 5 NO - 2,0
13.12.2017 20:00:00 2,0 2,0 0 0 N - 6
13.12.2017 19:00:00 3,1 2,3 9 5 N 1015,9 4,5
13.12.2017 18:00:00 4,0 4,0 4 2 - - 2,5
13.12.2017 17:00:00 5,0 4,0 5 3 W - 3,0
13.12.2017 16:00:00 5,2 3,6 5 3 ZW 1016,2 7
13.12.2017 15:00:00 6,0 4,0 5 3 ZZW - 6
13.12.2017 14:00:00 9,0 5,0 8 4 WZW - 10
13.12.2017 13:00:00 8,9 3,8 9 5 ZW 1016,8 15
13.12.2017 12:00:00 9,0 4,0 4 2 - - 10
13.12.2017 11:00:00 7,0 4,0 8 4 ZZW - 10
13.12.2017 10:00:00 4,7 3,3 4 2 - 1018,3 10
13.12.2017 09:00:00 0,0 -1,0 2 1 - - 7
13.12.2017 08:00:00 0,0 0,0 4 2 - - 10
13.12.2017 07:00:00 0,4 -0,4 8 4 NNO 1017,6 10
13.12.2017 06:00:00 -1,0 -1,0 2 1 W - 2,5
13.12.2017 05:00:00 -3,0 -3,0 5 3 WNW - 0,6
13.12.2017 04:00:00 0,1 0,0 5 3 - 1016,5 6
13.12.2017 03:00:00 0,0 0,0 4 2 - - 1,2
13.12.2017 02:00:00 -1,0 -1,0 0 0 N - 0,1
13.12.2017 01:00:00 0,9 0,4 2 1 - 1016,0 0,4
13.12.2017 00:00:00 4,0 3,0 8 4 N - 10
12.12.2017 23:00:00 4,0 2,0 9 5 N - 10
12.12.2017 22:00:00 3,6 2,5 8 4 NNO 1014,8 6
12.12.2017 21:00:00 5,0 3,0 4 2 - - 7
12.12.2017 20:00:00 5,0 4,0 5 3 OZO - 7
12.12.2017 19:00:00 3,7 3,1 5 3 O 1013,3 7
12.12.2017 18:00:00 5,0 4,0 5 3 - - 7
12.12.2017 17:00:00 6,0 5,0 5 3 N - 5
12.12.2017 16:00:00 5,3 4,0 4 2 - 1011,5 5
12.12.2017 15:00:00 5,0 4,0 5 3 - - 4,0
12.12.2017 14:00:00 6,0 4,0 4 2 - - 5
12.12.2017 13:00:00 7,3 5,4 9 5 Z 1009,5 7
12.12.2017 12:00:00 10,0 5,0 9 5 NW - 10
12.12.2017 11:00:00 7,0 6,0 8 4 N - 10
12.12.2017 10:00:00 7,5 4,9 8 4 N 1008,8 10
12.12.2017 09:00:00 5,0 4,0 11 6 N - 10
12.12.2017 08:00:00 5,0 4,0 11 6 N - 10
12.12.2017 07:00:00 3,5 3,1 8 4 NNO 1005,7 8
12.12.2017 06:00:00 3,0 3,0 8 4 N - 8
12.12.2017 05:00:00 3,0 3,0 11 6 WNW - 3,0
12.12.2017 04:00:00 3,5 3,3 5 3 NNO 1002,5 4,0
12.12.2017 03:00:00 3,0 3,0 8 4 WNW - 4,0
12.12.2017 02:00:00 2,0 2,0 8 4 NW - 4,0
12.12.2017 01:00:00 1,7 1,5 8 4 NNO 999,4 2,0
12.12.2017 00:00:00 1,0 1,0 16 9 W - 0,8
11.12.2017 23:00:00 3,0 3,0 5 3 Z - 0,8
11.12.2017 22:00:00 2,8 2,5 8 4 OZO 995,9 2,0
11.12.2017 21:00:00 2,0 2,0 11 6 O - 2,5
11.12.2017 20:00:00 1,0 1,0 5 3 - - 1,5
11.12.2017 19:00:00 1,4 1,2 4 2 - 996,6 1,2
11.12.2017 18:00:00 1,0 1,0 8 4 ZW - 1,2
11.12.2017 17:00:00 1,0 1,0 9 5 NNO - 1,0
11.12.2017 16:00:00 1,1 0,8 5 3 WZW 998,1 1,5
11.12.2017 15:00:00 1,0 1,0 8 4 W - 1,5
11.12.2017 14:00:00 1,0 1,0 9 5 NO - 3,0
11.12.2017 13:00:00 0,9 0,5 2 1 - 999,8 1,5
11.12.2017 12:00:00 1,0 1,0 8 4 WZW - 1,5
11.12.2017 11:00:00 1,0 1,0 5 3 Z - 1,5
11.12.2017 10:00:00 0,6 0,3 5 3 WNW 1001,0 1,5
11.12.2017 09:00:00 1,0 0,0 4 2 - - 3,0
11.12.2017 08:00:00 0,0 0,0 2 1 - - 3,0
11.12.2017 07:00:00 0,1 -0,1 4 2 O 1001,9 2,0

tt = temperatuur
td = dauwpunt
ff = windsnelheid
dd = windrichting
ppp = luchtdruk
vv = zicht

Weerstations in de omgeving